sat.trackr.live / text

‹ back to catalog

ONEWEB-0179

NORAD 48212 · 2021-031C

PAYLOAD ACTIVE UNKNOWN

§ Identity

Operator
Country
UK
Launch date
2021-04-25
Launch site
VOSTO
Launch vehicle
Mass (kg)
RCS (m²)

Purposes: comms

External: N2YO · Heavens-Above · Gunter

§ Orbital elements

Epoch: 2026-05-25T03:23:51.744768Z

Period
101.01 min
Inclination
87.8968°
Eccentricity
0.0219867
Mean motion
14.25532062 rev/d
Perigee alt
648.7 km
Apogee alt
964.7 km
Semi-major
7,184.8 km
B*
1.0359e-3
RAAN
292.5226°
Arg perigee
333.0772°
Mean anomaly
25.9144°
Rev number
24,576

§ Raw data

ONEWEB-01791 48212U 21031C   26145.14157112  .00003172  00000+0  10359-2 0  99962 48212  87.8968 292.5226 0219867 333.0772  25.9144 14.25532062245760

JSON: /api/v1/satellites/48212 · /tle

For live sub-satellite position, see the globe view (requires WebGL).

§ Visibility from observer

Set your observer location to see the next 7 days of passes ≥ 10°. The values pass through the URL so the page stays shareable.

No JS? Fill the form by hand. The geolocation button needs JavaScript.